TimeCDT,TemperatureF,Dew PointF,Humidity,Sea Level PressureIn,VisibilityMPH,Wind Direction,Wind SpeedMPH,Gust SpeedMPH,PrecipitationIn,Events,Conditions,WindDirDegrees,DateUTC
12:14 AM,42.8,26.6,53,29.92,10.0,Calm,Calm,-,N/A,,Scattered Clouds,0,2012-11-01 05:14:00
12:33 AM,39.2,26.6,61,29.92,10.0,Calm,Calm,-,N/A,,Scattered Clouds,0,2012-11-01 05:33:00
12:54 AM,39.2,26.6,61,29.92,10.0,Calm,Calm,-,N/A,,Scattered Clouds,0,2012-11-01 05:54:00
1:14 AM,37.4,26.6,65,29.91,10.0,Calm,Calm,-,N/A,,Clear,0,2012-11-01 06:14:00
1:34 AM,35.6,26.6,70,29.92,10.0,Calm,Calm,-,N/A,,Scattered Clouds,0,2012-11-01 06:34:00
1:54 AM,35.6,26.6,70,29.91,10.0,Calm,Calm,-,N/A,,Scattered Clouds,0,2012-11-01 06:54:00
2:13 AM,37.4,26.6,65,29.91,10.0,Calm,Calm,-,N/A,,Scattered Clouds,0,2012-11-01 07:13:00
2:34 AM,35.6,26.6,70,29.92,10.0,Calm,Calm,-,N/A,,Mostly Cloudy,0,2012-11-01 07:34:00
2:54 AM,37.4,26.6,65,29.91,10.0,Calm,Calm,-,N/A,,Overcast,0,2012-11-01 07:54:00
3:13 AM,39.2,28.4,65,29.91,10.0,Calm,Calm,-,N/A,,Overcast,0,2012-11-01 08:13:00
3:34 AM,41.0,30.2,65,29.91,10.0,NW,4.6,-,N/A,,Overcast,310,2012-11-01 08:34:00
3:54 AM,42.8,30.2,61,29.91,10.0,NW,5.8,-,N/A,,Overcast,310,2012-11-01 08:54:00
4:14 AM,42.8,30.2,61,29.91,10.0,NW,8.1,-,N/A,,Overcast,320,2012-11-01 09:14:00
4:34 AM,42.8,30.2,61,29.91,10.0,NW,9.2,-,N/A,,Overcast,320,2012-11-01 09:34:00
4:54 AM,42.8,30.2,61,29.92,10.0,NW,8.1,-,N/A,,Overcast,320,2012-11-01 09:54:00
5:14 AM,42.8,30.2,61,29.93,10.0,NW,10.4,-,N/A,,Overcast,320,2012-11-01 10:14:00
5:34 AM,42.8,30.2,61,29.93,10.0,NW,9.2,-,N/A,,Overcast,320,2012-11-01 10:34:00
5:54 AM,42.8,32.0,66,29.94,10.0,NNW,11.5,-,N/A,,Overcast,330,2012-11-01 10:54:00
6:14 AM,42.8,32.0,66,29.94,10.0,NW,9.2,-,N/A,,Overcast,320,2012-11-01 11:14:00
6:34 AM,42.8,32.0,66,29.95,10.0,NNW,8.1,-,N/A,,Overcast,330,2012-11-01 11:34:00
6:45 AM,42.8,32.0,66,29.95,10.0,NNW,10.4,-,N/A,,Mostly Cloudy,330,2012-11-01 11:45:00
6:54 AM,42.8,33.8,70,29.95,10.0,NW,8.1,-,N/A,,Mostly Cloudy,320,2012-11-01 11:54:00
7:50 AM,39.2,33.8,81,29.96,10.0,NNW,8.1,-,N/A,,Mostly Cloudy,330,2012-11-01 12:50:00
8:45 AM,41.0,33.8,76,29.98,10.0,NNW,8.1,-,N/A,,Mostly Cloudy,330,2012-11-01 13:45:00
9:45 AM,42.8,35.6,76,29.99,10.0,NNW,11.5,-,N/A,,Overcast,330,2012-11-01 14:45:00
10:55 AM,42.8,32.0,66,29.98,10.0,NNW,11.5,17.3,N/A,,Mostly Cloudy,330,2012-11-01 15:55:00
11:45 AM,42.8,30.2,61,29.99,10.0,NNW,16.1,19.6,N/A,,Mostly Cloudy,330,2012-11-01 16:45:00
12:45 PM,44.6,28.4,53,29.98,10.0,NNW,11.5,17.3,N/A,,Mostly Cloudy,340,2012-11-01 17:45:00
1:45 PM,46.4,26.6,46,29.97,10.0,NW,15.0,21.9,N/A,,Scattered Clouds,310,2012-11-01 18:45:00
2:45 PM,44.6,24.8,46,29.97,10.0,NNW,15.0,21.9,N/A,,Scattered Clouds,340,2012-11-01 19:45:00
3:55 PM,44.6,24.8,46,29.97,10.0,North,11.5,17.3,N/A,,Scattered Clouds,350,2012-11-01 20:55:00
4:45 PM,42.8,24.8,49,29.98,10.0,NNW,12.7,19.6,N/A,,Partly Cloudy,340,2012-11-01 21:45:00
5:45 PM,41.0,24.8,53,30.00,10.0,NNW,13.8,-,N/A,,Partly Cloudy,340,2012-11-01 22:45:00
6:45 PM,35.6,24.8,65,30.01,10.0,NNW,6.9,-,N/A,,Partly Cloudy,340,2012-11-01 23:45:00
7:45 PM,35.6,24.8,65,30.02,10.0,NNW,6.9,-,N/A,,Partly Cloudy,340,2012-11-02 00:45:00
9:14 PM,30.2,23.0,75,30.03,10.0,NNW,6.9,-,N/A,,Clear,340,2012-11-02 02:14:00
9:34 PM,32.0,24.8,75,30.04,10.0,NNW,6.9,-,N/A,,Clear,340,2012-11-02 02:34:00
9:53 PM,30.2,23.0,75,30.04,10.0,NNW,4.6,-,N/A,,Clear,340,2012-11-02 02:53:00
10:14 PM,30.2,23.0,75,30.04,10.0,NNW,4.6,-,N/A,,Clear,340,2012-11-02 03:14:00
10:34 PM,30.2,23.0,75,30.04,10.0,NNW,5.8,-,N/A,,Clear,330,2012-11-02 03:34:00
10:53 PM,30.2,24.8,80,30.05,10.0,NNW,4.6,-,N/A,,Clear,330,2012-11-02 03:53:00
11:14 PM,30.2,23.0,75,30.05,10.0,NNW,4.6,-,N/A,,Clear,330,2012-11-02 04:14:00
11:33 PM,30.2,23.0,75,30.05,10.0,NNW,5.8,-,N/A,,Clear,340,2012-11-02 04:33:00
11:54 PM,28.4,23.0,80,30.05,10.0,North,6.9,-,N/A,,Clear,10,2012-11-02 04:54:00